Zurück zum Katalog

FENGYUN 1C DEB

AktivPO
NORAD 31209·DEBRIS·🇨🇳 China

Gestartet May 10, 1999 von Taiyuan Satellite Launch Center

Loading…

Nächste Überflüge (nächste 24 Stunden)

TLE

AlterndSource: Space-Track

Epoche: Sep 7, 2026, 00:58 UTC

1 31209U 99025BKP 26250.04089794  .00004238  00000-0  11567-2 0  9995
2 31209  98.8864   2.7239 0020751 258.2369 101.6494 14.47749661686850

Verfolge FENGYUN 1C DEB in Echtzeit mit AllMySat

Download on the App Store